Weather History for Columbia Owens, SC

Change the Weather History Date:

Tuesday, October 15, 2013

  Actual Average Record
Temperature  
Mean Temperature 69 °F 66 °F  
Max Temperature 78 °F 76 °F 87 °F (2008)
Min Temperature 60 °F 55 °F 40 °F (2006)
Degree Days  
Heating Degree Days 0 2  
Month to date heating degree days 2 21  
Since 1 July heating degree days 2 24  
Cooling Degree Days 4 3  
Month to date cooling degree days 101 68  
Year to date cooling degree days 2174 2215  
Growing Degree Days 19 (Base 50)    
Moisture  
Dew Point 54 °F    
Average Humidity 65    
Maximum Humidity 90    
Minimum Humidity 31    
Precipitation  
Precipitation 0.00 in 0.11 in 1.02 in (2014)
Month to date precipitation 0.14 1.72  
Year to date precipitation 44.98 37.61  
Sea Level Pressure  
Sea Level Pressure 30.11 in    
Wind  
Wind Speed 3 mph (ENE)    
Max Wind Speed 12 mph    
Max Gust Speed 20 mph    
Visibility 10 miles    
Events      
T = Trace of Precipitation, MM = Missing Value Source: NWS Daily Summary

Daily Weather History Graph

Daily Weather History Graph

Search for Another Location

Airport:

Trip Planner

Search our weather history database for the weather conditions in past years. The results will help you decide how hot, cold, wet, or windy it might be!

Date:

Astronomy

Oct. 15, 2013 Rise Set
Actual Time 7:29 AM EDT 6:49 PM EDT
Civil Twilight 7:04 AM EDT 7:14 PM EDT
Nautical Twilight 6:34 AM EDT 7:43 PM EDT
Astronomical Twilight 6:06 AM EDT 8:12 PM EDT
Moon 4:46 PM EDT (10/15) 3:59 AM EDT (10/15)
Length of Visible Light 12h 10m
Length of Day
11h 20m
Waxing Gibbous, 87% of the Moon is Illuminated
Oct 15
Waxing Gibbous
Oct 18
Full
Oct 26
Last Quarter
Nov 3
New
Nov 10
First Quarter

Hourly Weather History & Observations

Time (EDT) Temp. Dew Point Humidity Pressure Visibility Wind Dir Wind Speed Gust Speed Precip Events Conditions
12:53 AM 66.0 °F 60.1 °F 81% 30.15 in 10.0 mi Variable 4.6 mph - N/A   Overcast
1:53 AM 66.0 °F 59.0 °F 78% 30.15 in 10.0 mi NNE 5.8 mph - N/A   Overcast
2:53 AM 66.0 °F 59.0 °F 78% 30.16 in 10.0 mi Variable 3.5 mph - N/A   Overcast
3:20 AM 64.4 °F 59.0 °F 83% 30.14 in 10.0 mi Variable 4.6 mph - N/A   Overcast
3:53 AM 64.0 °F 57.9 °F 80% 30.14 in 10.0 mi Variable 4.6 mph - N/A   Mostly Cloudy
4:39 AM 62.6 °F 57.2 °F 82% 30.14 in 10.0 mi Variable 3.5 mph - N/A   Scattered Clouds
4:53 AM 63.0 °F 57.9 °F 84% 30.14 in 10.0 mi Variable 4.6 mph - N/A   Partly Cloudy
5:53 AM 62.1 °F 57.9 °F 86% 30.15 in 10.0 mi Variable 3.5 mph - N/A   Partly Cloudy
6:53 AM 62.1 °F 57.0 °F 84% 30.15 in 10.0 mi Calm Calm - N/A   Mostly Cloudy
7:53 AM 61.0 °F 57.0 °F 87% 30.16 in 10.0 mi Calm Calm - N/A   Clear
8:53 AM 63.0 °F 55.9 °F 78% 30.16 in 10.0 mi Variable 5.8 mph - N/A   Clear
9:53 AM 64.0 °F 55.9 °F 75% 30.17 in 10.0 mi ENE 4.6 mph - N/A   Partly Cloudy
10:53 AM 66.9 °F 54.0 °F 63% 30.16 in 10.0 mi East 10.4 mph 18.4 mph N/A   Clear
11:53 AM 70.0 °F 51.1 °F 51% 30.13 in 10.0 mi Variable 4.6 mph - N/A   Clear
12:53 PM 73.0 °F 46.9 °F 39% 30.12 in 10.0 mi Variable 5.8 mph - N/A   Clear
1:53 PM 75.0 °F 48.0 °F 38% 30.09 in 10.0 mi Variable 5.8 mph - N/A   Clear
2:53 PM 77.0 °F 44.1 °F 31% 30.06 in 10.0 mi Variable 5.8 mph - N/A   Clear
3:53 PM 77.0 °F 45.0 °F 32% 30.05 in 10.0 mi Variable 3.5 mph - N/A   Clear
4:53 PM 77.0 °F 46.0 °F 33% 30.04 in 10.0 mi Calm Calm - N/A   Clear
5:53 PM 75.9 °F 46.0 °F 35% 30.04 in 10.0 mi Calm Calm - N/A   Clear
6:53 PM 69.1 °F 52.0 °F 54% 30.05 in 10.0 mi Calm Calm - N/A   Clear
7:53 PM 66.0 °F 54.0 °F 65% 30.05 in 10.0 mi Calm Calm - N/A   Clear
8:53 PM 64.0 °F 54.0 °F 70% 30.07 in 10.0 mi Calm Calm - N/A   Clear
9:53 PM 63.0 °F 54.0 °F 72% 30.07 in 10.0 mi Calm Calm - N/A   Clear
10:53 PM 63.0 °F 52.0 °F 67% 30.07 in 10.0 mi Calm Calm - N/A   Clear
11:53 PM 62.1 °F 53.1 °F 72% 30.06 in 10.0 mi Calm Calm - N/A   Clear